Overview Statistics Trail Chart Weather Telemetry Raw packets
 

This is the latest recevied weather packets stored in our database for station/object KB0BDN-13. If no packets are shown the sender has not sent any weather packets the latest 10 day(s).

<< 25 26 27 28 29 30 31 >>
Time Temp. Humidity Pressure Rain* Wind** Luminosity Snow
1788381097 22.22° C 70% 1005.9 hPa 0 mm - - -
1788380951 22.22° C 70% 1005.9 hPa 0 mm - - -
1788380197 22.22° C 70% 1005.9 hPa 0 mm - - -
1788380051 22.22° C 69% 1006.1 hPa 0 mm - - -
1788379297 21.67° C 72% 1006.1 hPa 0 mm - - -
1788379151 21.67° C 72% 1006.2 hPa 0 mm - - -
1788378397 21.67° C 71% 1006.2 hPa 0 mm - - -
1788378250 21.67° C 72% 1006 hPa 0 mm - - -
1788377497 21.67° C 71% 1006 hPa 0 mm - - -
1788377350 21.67° C 73% 1006.2 hPa 0 mm - - -
1788376597 21.67° C 71% 1006.2 hPa 0 mm - - -
1788375697 21.11° C 72% 1006.2 hPa 0 mm - - -
1788375550 21.11° C 72% 1006.3 hPa 0 mm - - -
1788374797 21.11° C 72% 1006.3 hPa 0 mm - - -
1788374650 21.11° C 74% 1006.3 hPa 0 mm - - -
1788373897 21.11° C 74% 1006.3 hPa 0 mm - - -
1788372997 21.11° C 76% 1006.2 hPa 0 mm - - -
1788372850 21.11° C 75% 1006.3 hPa 0 mm - - -
1788372097 20.56° C 77% 1006.3 hPa 0 mm - - -
1788371950 20.56° C 76% 1006.3 hPa 0 mm - - -
1788371197 21.67° C 74% 1006.3 hPa 0 mm - - -
1788371050 21.67° C 74% 1006.3 hPa 0 mm - - -
1788370297 21.67° C 71% 1006.3 hPa 0 mm - - -
1788369397 21.67° C 72% 1006 hPa 0 mm - - -
1788368497 21.11° C 74% 1006.2 hPa 0 mm - - -

* Rain latest hour (hover to see other rain measurements)
** Current wind speed in m/s (hover to see current wind gust speed)